Terminal Aerodrome Forecast
Issued by NWS Green Bay, WI

Home | Current Version | Previous Version | Text Only | Print | Product List | Glossary Off
Versions: 1 2 3 4 5 6 7 8 9 10 11 12 13 14 15 16 17 18 19 20 21 22 23 24 25 26 27 28 29 30 31 32 33 34 35

000
FTUS43 KGRB 271508 AAC
TAFGRB
TAF AMD
KGRB 271508Z 2715/2812 VRB02KT 3SM BR BKN002
      TEMPO 2715/2716 6SM BR SKC
     FM271600 17003KT P6SM SKC
     FM271700 16005KT P6SM SCT250
     FM280000 19003KT P6SM BKN250
     FM281000 VRB03KT P6SM SCT050 BKN100=

USA.gov is the U.S. government's official web portal to all federal, state and local government web resources and services.